EW7112 Weather Reports


Display with metric or nautical units.
time (UTC)temp
F
wind
direction
speed
MPH
gust
MPH
rain 1hr
in
rain 24hr
in
rain mn
in
humidity
%
barometer
mb
20260508190053 75 210 1.0 6.0 0.00 0.97 0.97 68 989.3
20260508184550 75 212 3.0 7.0 0.00 0.97 0.97 67 989.4
20260508183050 76 83 2.0 7.0 0.00 0.97 0.97 66 989.5
20260508181547 76 109 3.0 7.0 0.00 0.97 0.97 65 989.8
20260508180043 76 262 1.0 8.0 0.00 0.97 0.97 66 990.2
20260508174541 74 174 2.0 6.0 0.00 0.97 0.97 66 990.3
20260508173037 74 195 2.0 9.0 0.00 0.97 0.97 66 990.6
20260508171534 73 195 2.0 9.0 0.00 0.97 0.97 67 990.8
20260508170032 72 82 2.0 6.0 0.00 0.97 0.97 67 991.0
20260508164533 70 229 5.0 7.0 0.00 0.97 0.97 68 991.4
20260508163024 70 106 1.0 7.0 0.00 0.97 0.97 67 991.9
20260508161521 70 95 2.0 7.0 0.00 0.97 0.97 70 992.1
20260508160023 69 217 0.0 5.0 0.00 0.97 0.97 72 992.2
20260508154516 68 83 2.0 5.0 0.00 0.97 0.97 74 992.4
20260508153014 68 103 1.0 5.0 0.00 0.97 0.97 75 992.4
20260508151511 66 98 1.0 4.0 0.00 0.97 0.97 79 992.7
20260508150007 65 183 0.0 3.0 0.00 0.97 0.97 80 992.9
20260508144506 65 215 1.0 4.0 0.00 0.97 0.97 79 992.8
20260508143004 65 205 0.0 2.0 0.00 0.97 0.97 81 993.0
20260508141502 64 129 1.0 4.0 0.00 0.97 0.97 83 993.1
20260508134600 63 136 0.0 2.0 0.00 0.97 0.97 87 992.9
20260508133100 62 136 0.0 2.0 0.01 0.97 0.97 88 992.9
20260508131558 62 122 0.0 1.0 0.03 0.97 0.97 89 993.0
20260508130108 61 122 0.0 1.0 0.13 0.97 0.97 89 993.1
20260508124551 61 122 0.0 1.0 0.13 0.97 0.97 89 993.2
20260508123049 60 122 0.0 1.0 0.12 0.96 0.96 89 993.1
20260508121556 60 122 1.0 5.0 0.10 0.94 0.94 89 993.0
20260508120046 61 204 0.0 3.0 0.00 0.84 0.84 89 993.4
20260508114545 61 185 0.0 2.0 0.01 0.84 0.84 89 993.0
20260508113046 61 99 0.0 1.0 0.37 0.84 0.84 89 993.3
20260508111544 61 123 0.0 2.0 0.39 0.84 0.84 89 992.8
20260508110044 61 173 0.0 3.0 0.39 0.84 0.84 89 992.8
20260508104613 61 59 0.0 2.0 0.51 0.82 0.82 89 992.9
20260508103045 61 49 0.0 6.0 0.15 0.46 0.46 89 993.6
20260508101542 61 126 0.0 0.0 0.14 0.45 0.45 89 992.6
20260508100042 61 126 0.0 3.0 0.14 0.45 0.45 88 992.5
20260508094544 61 276 1.0 2.0 0.00 0.31 0.31 88 992.8
20260508093038 61 1 0.0 0.0 0.00 0.31 0.31 89 992.6
20260508091536 61 1 0.0 0.0 0.01 0.31 0.31 88 992.4
20260508090040 61 1 0.0 0.0 0.01 0.31 0.31 88 992.7
20260508084534 61 325 0.0 1.0 0.01 0.31 0.31 88 992.8
20260508083039 61 325 0.0 2.0 0.11 0.31 0.31 88 993.0
20260508081537 61 318 2.0 4.0 0.30 0.30 0.30 87 993.7
20260508080031 61 139 2.0 5.0 0.30 0.30 0.30 87 992.7
20260508074527 61 283 1.0 3.0 0.30 0.30 0.30 86 993.7
20260508073025 62 35 0.0 2.0 0.20 0.20 0.20 82 994.1
20260508071522 64 292 0.0 2.0 0.00 0.00 0.00 73 993.9
20260508070026 64 121 0.0 2.0 0.00 0.00 0.00 73 993.9
20260508064519 64 121 0.0 1.0 0.00 0.00 0.00 73 994.0
20260508063016 64 121 0.0 1.0 0.00 0.00 0.00 73 994.1
20260508061516 64 121 0.0 0.0 0.00 0.00 0.00 75 994.5
20260508060012 63 121 0.0 0.0 0.00 0.00 0.00 75 994.3
20260508054511 63 121 0.0 0.0 0.00 0.00 0.00 74 994.2
20260508053014 63 121 0.0 0.0 0.00 0.00 0.00 74 994.2
20260508051508 63 121 0.0 0.0 0.00 0.00 0.00 73 994.3
20260508050007 63 121 0.0 0.0 0.00 0.00 0.00 72 994.3
20260508044506 63 121 0.0 0.0 0.00 0.00 0.00 72 994.3
20260508043005 64 121 0.0 0.0 0.00 0.00 0.00 71 994.2
20260508041506 64 121 0.0 0.0 0.00 0.00 0.00 71 994.3
20260508040003 64 121 0.0 0.0 0.00 0.00 0.00 71 994.3
20260508034504 64 121 0.0 0.0 0.00 0.00 0.00 69 994.1
20260508033002 64 121 0.0 0.0 0.00 0.00 0.00 68 994.0
20260508031504 65 121 0.0 1.0 0.00 0.00 0.00 67 994.0
20260508030002 65 121 0.0 0.0 0.00 0.00 0.00 65 993.9
20260508024603 66 121 0.0 0.0 0.00 0.00 0.00 63 993.7
20260508023100 66 121 0.0 1.0 0.00 0.00 0.00 61 993.5
20260508021600 66 121 0.0 2.0 0.00 0.00 0.00 62 993.6
20260508020059 67 101 0.0 2.0 0.00 0.00 0.00 61 993.3
20260508014558 67 124 0.0 1.0 0.00 0.00 0.00 60 993.3
20260508013106 68 191 0.0 3.0 0.00 0.00 0.00 59 993.3
20260508011557 68 188 0.0 4.0 0.00 0.00 0.00 58 993.3
20260508010056 68 138 2.0 6.0 0.00 0.00 0.00 58 993.5
20260508004600 69 158 2.0 7.0 0.00 0.00 0.00 57 993.2
20260508003055 69 223 0.0 6.0 0.00 0.00 0.00 57 993.2
20260508001553 70 214 2.0 5.0 0.00 0.00 0.00 56 993.3
20260508000053 70 86 1.0 7.0 0.00 0.00 0.00 55 993.6
20260507234653 71 94 1.0 7.0 0.00 0.00 0.00 54 993.6
20260507233050 71 197 2.0 7.0 0.00 0.00 0.00 54 993.5
20260507231548 72 162 2.0 6.0 0.00 0.00 0.00 53 993.4
20260507230051 74 138 3.0 6.0 0.00 0.00 0.00 48 993.6
20260507224547 73 42 0.0 1.0 0.00 0.00 0.00 48 993.5
20260507223043 73 17 0.0 2.0 0.00 0.00 0.00 48 993.6
20260507221542 73 41 1.0 4.0 0.00 0.00 0.00 46 993.8
20260507220042 73 28 0.0 3.0 0.00 0.00 0.00 45 993.8
20260507214537 73 111 0.0 3.0 0.00 0.00 0.00 46 994.0
20260507213039 74 87 0.0 3.0 0.00 0.00 0.00 44 994.2
20260507211534 73 316 1.0 5.0 0.00 0.00 0.00 43 994.4
20260507210031 73 55 0.0 5.0 0.00 0.00 0.00 45 994.5
20260507204529 74 59 2.0 7.0 0.00 0.00 0.00 43 994.6
20260507203028 74 106 1.0 5.0 0.00 0.00 0.00 43 994.6
20260507201531 75 70 2.0 7.0 0.00 0.00 0.00 43 994.9
20260507200023 74 319 3.0 6.0 0.00 0.00 0.00 44 995.2
20260507194522 73 112 2.0 7.0 0.00 0.00 0.00 45 995.3
20260507193025 73 1 3.0 8.0 0.00 0.00 0.00 46 995.6
20260507191514 72 102 3.0 9.0 0.00 0.00 0.00 46 995.9